sat.trackr.live / text

‹ back to catalog

JILIN-1 GAOFEN 03D54

NORAD 54254 · 2022-155D

PAYLOAD ACTIVE UNKNOWN

§ Identity

Operator
Country
PRC
Launch date
2022-11-16
Launch site
JSC
Launch vehicle
Mass (kg)
RCS (m²)

External: N2YO · Heavens-Above · Gunter

§ Orbital elements

Epoch: 2026-05-25T07:58:41.163168Z

Period
90.78 min
Inclination
97.6104°
Eccentricity
0.0000676
Mean motion
15.86288866 rev/d
Perigee alt
312.2 km
Apogee alt
313.2 km
Semi-major
6,690.8 km
B*
7.3689e-4
RAAN
295.6194°
Arg perigee
215.0985°
Mean anomaly
145.0241°
Rev number
19,666

§ Raw data

JILIN-1 GAOFEN 03D541 54254U 22155D   26145.33242087  .00186259  00000+0  73689-3 0  99982 54254  97.6104 295.6194 0000676 215.0985 145.0241 15.86288866196667

JSON: /api/v1/satellites/54254 · /tle

For live sub-satellite position, see the globe view (requires WebGL).

§ Visibility from observer

Set your observer location to see the next 7 days of passes ≥ 10°. The values pass through the URL so the page stays shareable.

No JS? Fill the form by hand. The geolocation button needs JavaScript.

§ Radio — SatNOGS DB

ModeDescriptionDownlinkUplink
FM Jillin Mysterious Pip 1.616 GHz

1 transmitter · refreshed weekly from db.satnogs.org